Home   Weather   Kempen   Past weeks

Flag for Germany Past Weather in Kempen, North Rhine-Westphalia, Germany — Yesterday and Last 2 Weeks

Now
50 °F

Scattered showers. Passing clouds.


Feels Like: 48 °F
Forecast: 34 / 53 °F
Wind: 6 mph from North

Location: Monchengladbach Airport

Current Time: Apr 26, 2017 at 8:11:09 pm

Latest Report: Apr 26, 2017 at 7:20 pm


Visibility: N/A

Pressure: 29.92 "Hg

Humidity: 43%

Dew Point: 28 °F

Location of KempenLocation

Past Weather in Kempen — Graph

°F

Kempen Temperature Yesterday

Maximum temperature yesterday: 50 °F (at 2:20 pm)
Minimum temperature yesterday: 43 °F (at 8:20 am)
Average temperature yesterday: 47 °F

High & Low Weather Summary for the Past Weeks

 TemperatureHumidityPressure
High59 °F (Apr 21, 2:50 pm)100% (Apr 17, 7:50 am)30.63 "Hg (Apr 17, 7:50 am)
Low30 °F (Apr 20, 7:50 am)30% (Apr 20, 6:20 pm)29.74 "Hg (Apr 25, 8:20 am)
Average49 °F58%30.15 "Hg
* Reported Apr 11 6:20 pm — Apr 26 6:50 pm, Kempen, Weather by CustomWeather, © 2017

Note: Actual official high and low records may vary slightly from our data, if they occured in-between our weather recording intervals... More about our weather records

Advertising

Kempen Weather History for the Previous 24 Hours

Scroll right to see more
 ConditionsComfort  
Time TempWeatherWind HumidityBarometerVisibility
6:50 pm
Wed, Apr 26
50 °FPassing clouds.8 mph47%29.92 "HgN/A
6:20 pm50 °FClear.3 mph47%29.89 "Hg10 mi
5:50 pm50 °FPassing clouds.6 mph47%29.89 "HgN/A
5:20 pm52 °FScattered showers. Passing clouds.7 mph44%29.89 "HgN/A
4:50 pm50 °FScattered showers. Passing clouds.5 mph43%29.89 "HgN/A
4:20 pm50 °FScattered showers. Passing clouds.7 mph47%29.89 "HgN/A
3:50 pm52 °FClear.3 mph41%29.89 "Hg10 mi
3:20 pm50 °FClear.6 mph40%29.89 "Hg10 mi
2:50 pm50 °FPassing clouds.7 mph43%29.89 "HgN/A
2:20 pm48 °FPassing clouds.9 mph50%29.89 "HgN/A
1:50 pm48 °FSprinkles. Passing clouds.12 mph54%29.89 "HgN/A
1:20 pm46 °FPassing clouds.6 mph53%29.89 "HgN/A
12:50 pm46 °FPassing clouds.6 mph57%29.89 "HgN/A
12:20 pm46 °FPassing clouds.3 mph62%29.89 "HgN/A
11:50 am45 °FScattered clouds.6 mph66%29.89 "HgN/A
11:20 am45 °FScattered clouds.7 mph71%29.89 "HgN/A
10:50 am43 °FScattered clouds.8 mph76%29.89 "HgN/A
10:20 am43 °FBroken clouds.7 mph76%29.89 "HgN/A
9:50 am41 °FScattered clouds.6 mph81%29.89 "HgN/A
8:20 pm
Tue, Apr 25
46 °FClear.12 mph46%29.83 "Hg10 mi
Weather by CustomWeather, © 2017

See weather overviewHow to use our weather pages